Baton Rouge, LA

8:37 PM CDT on October 21, 2019 (GMT -0500)
Baton Rouge Metro-Ryan

Weather History for KBTR - September, 2019

Change the Weather History Date:

Monday, September 16, 2019

  Actual Average Record
Temperature  
Mean Temperature 83 °F 79 °F  
Max Temperature 92 °F 89 °F 99 °F (1921)
Min Temperature 74 °F 69 °F 55 °F (1961)
Degree Days  
Heating Degree Days 0 0  
Month to date heating degree days 0 0  
Since 1 July heating degree days 0 0  
Cooling Degree Days 18 14  
Month to date cooling degree days 315 248  
Year to date cooling degree days 2653 2409  
Growing Degree Days 32 (Base 50)    
Moisture  
Dew Point 73 °F    
Average Humidity 73    
Maximum Humidity 94    
Minimum Humidity 52    
Precipitation  
Precipitation T in 0.14 in 2.60 in (1988)
Month to date precipitation 0.64 2.56  
Year to date precipitation 49.85 44.27  
Snow  
Snow 0.00 in - - ()
Month to date snowfall 0.0  
Since 1 July snowfall 0.0  
Since 1 September snowfall 0.0  
Snow Depth 0.00 in    
Sea Level Pressure  
Sea Level Pressure 30.00 in    
Wind  
Wind Speed 7 mph (ENE)    
Max Wind Speed 18 mph    
Max Gust Speed 25 mph    
Visibility 10 miles    
Events      
T = Trace of Precipitation, MM = Missing Value Source: NWS Daily Summary

Daily Weather History Graph

Daily Weather History Graph

Search for Another Location

Airport or City:

Astronomy

Sep. 16, 2019 Rise Set
Actual Time 6:49 AM CDT 7:09 PM CDT
Civil Twilight 6:25 AM CDT 7:33 PM CDT
Nautical Twilight 5:57 AM CDT 8:01 PM CDT
Astronomical Twilight 5:28 AM CDT 8:29 PM CDT
Moon 8:52 PM CDT (9/16) 8:50 AM CDT (9/16)
Length of Visible Light 13h 07m
Length of Day
12h 19m
Waning Gibbous, 94% of the Moon is Illuminated
Sep 16
Waning Gibbous
Sep 21
Last Quarter
Sep 28
New
Oct 5
First Quarter
Oct 13
Full

Hourly Weather History & Observations

Time (CDT) Temp. Heat Index Dew Point Humidity Pressure Visibility Wind Dir Wind Speed Gust Speed Precip Events Conditions
12:53 AM 77.0 °F - 73.0 °F 88% 30.00 in 10.0 mi Calm Calm - N/A   Clear
1:53 AM 75.9 °F - 73.0 °F 91% 30.00 in 9.0 mi Calm Calm - N/A   Clear
2:53 AM 75.0 °F - 73.0 °F 94% 29.99 in 8.0 mi Calm Calm - N/A   Clear
3:53 AM 75.0 °F - 72.0 °F 90% 29.99 in 8.0 mi Calm Calm - N/A   Clear
4:53 AM 73.9 °F - 72.0 °F 93% 29.99 in 8.0 mi NE 4.6 mph - N/A   Clear
5:53 AM 75.0 °F - 72.0 °F 90% 30.00 in 10.0 mi NNE 6.9 mph - N/A   Clear
6:53 AM 75.0 °F - 71.1 °F 87% 30.00 in 9.0 mi NNE 8.1 mph - N/A   Clear
7:53 AM 78.1 °F - 72.0 °F 81% 30.01 in 10.0 mi NNE 6.9 mph - N/A   Clear
8:53 AM 82.0 °F 86.7 °F 72.0 °F 71% 30.02 in 10.0 mi NE 9.2 mph - N/A   Clear
9:53 AM 82.9 °F 88.0 °F 72.0 °F 69% 30.03 in 10.0 mi ENE 10.4 mph - N/A   Mostly Cloudy
10:53 AM 87.1 °F 94.5 °F 73.0 °F 63% 30.03 in 10.0 mi NE 8.1 mph - N/A   Mostly Cloudy
11:53 AM 91.0 °F 98.2 °F 72.0 °F 53% 30.03 in 10.0 mi East 13.8 mph 19.6 mph N/A   Scattered Clouds
12:53 PM 88.0 °F 94.7 °F 72.0 °F 59% 30.02 in 10.0 mi East 17.3 mph 23.0 mph N/A   Mostly Cloudy
1:53 PM 84.9 °F 92.1 °F 73.9 °F 69% 30.02 in 10.0 mi SE 11.5 mph - N/A   Partly Cloudy
2:53 PM 82.0 °F 87.4 °F 73.0 °F 74% 30.01 in 10.0 mi ESE 11.5 mph - N/A   Clear
3:53 PM 84.0 °F 91.2 °F 73.9 °F 72% 29.99 in 10.0 mi ESE 10.4 mph - 0.00 in   Clear
4:53 PM 82.9 °F 89.4 °F 73.9 °F 74% 29.97 in 10.0 mi ESE 11.5 mph - N/A   Clear
5:53 PM 82.9 °F 89.4 °F 73.9 °F 74% 29.97 in 10.0 mi ESE 9.2 mph - N/A   Clear
6:53 PM 82.0 °F 87.9 °F 73.9 °F 76% 29.97 in 10.0 mi East 6.9 mph - N/A   Clear
7:53 PM 80.1 °F 84.5 °F 73.9 °F 81% 29.97 in 10.0 mi NE 4.6 mph - N/A   Clear
8:53 PM 78.1 °F - 73.0 °F 84% 29.99 in 10.0 mi ENE 4.6 mph - N/A   Clear
9:53 PM 77.0 °F - 73.0 °F 88% 30.00 in 10.0 mi ENE 3.5 mph - N/A   Clear
11:53 PM 77.0 °F - 73.9 °F 90% 29.99 in 10.0 mi NE 4.6 mph - N/A   Clear